Year,Month,Day,Hour,Minute,Value (Times are PST for temperature in C)
2015,06,27,00,00,13.40
2015,06,27,00,01,13.40
2015,06,27,00,02,13.40
2015,06,27,00,03,13.40
2015,06,27,00,04,13.40
2015,06,27,00,05,13.40
2015,06,27,00,06,13.40
2015,06,27,00,07,13.40
2015,06,27,00,08,13.40
2015,06,27,00,09,13.40
2015,06,27,00,10,13.40
2015,06,27,00,11,13.40
2015,06,27,00,12,13.40
2015,06,27,00,13,13.50
2015,06,27,00,14,13.50
2015,06,27,00,15,13.50
2015,06,27,00,16,13.50
2015,06,27,00,17,13.50
2015,06,27,00,18,13.50
2015,06,27,00,19,13.50
2015,06,27,00,20,13.50
2015,06,27,00,21,13.50
2015,06,27,00,22,13.50
2015,06,27,00,23,13.50
2015,06,27,00,24,13.40
2015,06,27,00,25,13.40
2015,06,27,00,26,13.50
2015,06,27,00,27,13.50
2015,06,27,00,28,13.40
2015,06,27,00,29,13.40
2015,06,27,00,30,13.40
2015,06,27,00,31,13.40
2015,06,27,00,32,13.40
2015,06,27,00,33,13.40
2015,06,27,00,34,13.40
2015,06,27,00,35,13.40
2015,06,27,00,36,13.40
2015,06,27,00,37,13.40
2015,06,27,00,38,13.40
2015,06,27,00,39,13.40
2015,06,27,00,40,13.40
2015,06,27,00,41,13.40
2015,06,27,00,42,13.40
2015,06,27,00,43,13.40
2015,06,27,00,44,13.40
2015,06,27,00,45,13.40
2015,06,27,00,46,13.40
2015,06,27,00,47,13.40
2015,06,27,00,48,13.40
2015,06,27,00,49,13.30
2015,06,27,00,50,13.30
2015,06,27,00,51,13.30
2015,06,27,00,52,13.30
2015,06,27,00,53,13.30
2015,06,27,00,54,13.30
2015,06,27,00,55,13.20
2015,06,27,00,56,13.20
2015,06,27,00,57,13.20
2015,06,27,00,58,13.20
2015,06,27,00,59,13.20
2015,06,27,01,00,13.20
2015,06,27,01,01,13.20
2015,06,27,01,02,13.20
2015,06,27,01,03,13.20
2015,06,27,01,04,13.20
2015,06,27,01,05,13.20
2015,06,27,01,06,13.10
2015,06,27,01,07,13.10
2015,06,27,01,08,13.10
2015,06,27,01,09,13.10
2015,06,27,01,10,13.10
2015,06,27,01,11,13.00
2015,06,27,01,12,13.00
2015,06,27,01,13,13.00
2015,06,27,01,14,13.00
2015,06,27,01,15,13.00
2015,06,27,01,16,13.10
2015,06,27,01,17,13.10
2015,06,27,01,18,13.10
2015,06,27,01,19,13.10
2015,06,27,01,20,13.10
2015,06,27,01,21,13.10
2015,06,27,01,22,13.10
2015,06,27,01,23,13.20
2015,06,27,01,24,13.20
2015,06,27,01,25,13.20
2015,06,27,01,26,13.30
2015,06,27,01,27,13.30
2015,06,27,01,28,13.30
2015,06,27,01,29,13.30
2015,06,27,01,30,13.20
2015,06,27,01,31,13.20
2015,06,27,01,32,13.20
2015,06,27,01,33,13.10
2015,06,27,01,34,13.10
2015,06,27,01,35,13.10
2015,06,27,01,36,13.10
2015,06,27,01,37,13.10
2015,06,27,01,38,13.00
2015,06,27,01,39,13.00
2015,06,27,01,40,13.00
2015,06,27,01,41,12.90
2015,06,27,01,42,12.90
2015,06,27,01,43,12.90
2015,06,27,01,44,12.80
2015,06,27,01,45,12.80
2015,06,27,01,46,12.80
2015,06,27,01,47,12.80
2015,06,27,01,48,12.80
2015,06,27,01,49,12.70
2015,06,27,01,50,12.70
2015,06,27,01,51,12.70
2015,06,27,01,52,12.70
2015,06,27,01,53,12.70
2015,06,27,01,54,12.70
2015,06,27,01,55,12.70
2015,06,27,01,56,12.70
2015,06,27,01,57,12.70
2015,06,27,01,58,12.70
2015,06,27,01,59,12.60
2015,06,27,02,00,12.60
2015,06,27,02,01,12.60
2015,06,27,02,02,12.60
2015,06,27,02,03,12.60
2015,06,27,02,04,12.60
2015,06,27,02,05,12.60
2015,06,27,02,06,12.60
2015,06,27,02,07,12.60
2015,06,27,02,08,12.60
2015,06,27,02,09,12.60
2015,06,27,02,10,12.60
2015,06,27,02,11,12.60
2015,06,27,02,12,12.60
2015,06,27,02,13,12.60
2015,06,27,02,14,12.50
2015,06,27,02,15,12.50
2015,06,27,02,16,12.50
2015,06,27,02,17,12.50
2015,06,27,02,18,12.50
2015,06,27,02,19,12.50
2015,06,27,02,20,12.50
2015,06,27,02,21,12.40
2015,06,27,02,22,12.40
2015,06,27,02,23,12.40
2015,06,27,02,24,12.40
2015,06,27,02,25,12.40
2015,06,27,02,26,12.40
2015,06,27,02,27,12.40
2015,06,27,02,28,12.40
2015,06,27,02,29,12.30
2015,06,27,02,30,12.30
2015,06,27,02,31,12.30
2015,06,27,02,32,12.30
2015,06,27,02,33,12.30
2015,06,27,02,34,12.30
2015,06,27,02,35,12.30
2015,06,27,02,36,12.20
2015,06,27,02,37,12.20
2015,06,27,02,38,12.20
2015,06,27,02,39,12.20
2015,06,27,02,40,12.20
2015,06,27,02,41,12.20
2015,06,27,02,42,12.20
2015,06,27,02,43,12.20
2015,06,27,02,44,12.20
2015,06,27,02,45,12.20
2015,06,27,02,46,12.10
2015,06,27,02,47,12.10
2015,06,27,02,48,12.10
2015,06,27,02,49,12.10
2015,06,27,02,50,12.10
2015,06,27,02,51,12.10
2015,06,27,02,52,12.10
2015,06,27,02,53,12.10
2015,06,27,02,54,12.10
2015,06,27,02,55,12.10
2015,06,27,02,56,12.10
2015,06,27,02,57,12.00
2015,06,27,02,58,12.00
2015,06,27,02,59,12.00
2015,06,27,03,00,12.00
2015,06,27,03,01,12.00
2015,06,27,03,02,12.00
2015,06,27,03,03,12.00
2015,06,27,03,04,12.00
2015,06,27,03,05,11.90
2015,06,27,03,06,11.90
2015,06,27,03,07,11.90
2015,06,27,03,08,11.90
2015,06,27,03,09,11.90
2015,06,27,03,10,11.90
2015,06,27,03,11,11.90
2015,06,27,03,12,11.90
2015,06,27,03,13,11.90
2015,06,27,03,14,11.80
2015,06,27,03,15,11.80
2015,06,27,03,16,11.80
2015,06,27,03,17,11.80
2015,06,27,03,18,11.80
2015,06,27,03,19,11.80
2015,06,27,03,20,11.80
2015,06,27,03,21,11.80
2015,06,27,03,22,11.80
2015,06,27,03,23,11.80
2015,06,27,03,24,11.80
2015,06,27,03,25,11.80
2015,06,27,03,26,11.80
2015,06,27,03,27,11.80
2015,06,27,03,28,11.80
2015,06,27,03,29,11.80
2015,06,27,03,30,11.80
2015,06,27,03,31,11.80
2015,06,27,03,32,11.80
2015,06,27,03,33,11.80
2015,06,27,03,34,11.80
2015,06,27,03,35,11.70
2015,06,27,03,36,11.70
2015,06,27,03,37,11.70
2015,06,27,03,38,11.70
2015,06,27,03,39,11.70
2015,06,27,03,40,11.70
2015,06,27,03,41,11.70
2015,06,27,03,42,11.70
2015,06,27,03,43,11.70
2015,06,27,03,44,11.70
2015,06,27,03,45,11.70
2015,06,27,03,46,11.70
2015,06,27,03,47,11.60
2015,06,27,03,48,11.60
2015,06,27,03,49,11.60
2015,06,27,03,50,11.60
2015,06,27,03,51,11.60
2015,06,27,03,52,11.60
2015,06,27,03,53,11.60
2015,06,27,03,54,11.60
2015,06,27,03,55,11.60
2015,06,27,03,56,11.60
2015,06,27,03,57,11.60
2015,06,27,03,58,11.60
2015,06,27,03,59,11.60
2015,06,27,04,00,11.60
2015,06,27,04,01,11.60
2015,06,27,04,02,11.60
2015,06,27,04,03,11.60
2015,06,27,04,04,11.50
2015,06,27,04,05,11.50
2015,06,27,04,06,11.50
2015,06,27,04,07,11.50
2015,06,27,05,02,11.40
2015,06,27,05,03,11.40
2015,06,27,05,04,11.40
2015,06,27,05,05,11.30
2015,06,27,05,06,11.30
2015,06,27,05,07,11.30
2015,06,27,05,08,11.30
2015,06,27,05,09,11.30
2015,06,27,05,10,11.30
2015,06,27,05,11,11.30
2015,06,27,05,12,11.30
2015,06,27,05,13,11.30
2015,06,27,05,14,11.30
2015,06,27,05,15,11.30
2015,06,27,05,16,11.30
2015,06,27,05,17,11.30
2015,06,27,05,18,11.30
2015,06,27,05,19,11.30
2015,06,27,05,20,11.30
2015,06,27,05,21,11.40
2015,06,27,05,22,11.40
2015,06,27,05,23,11.40
2015,06,27,05,24,11.40
2015,06,27,05,25,11.40
2015,06,27,05,26,11.40
2015,06,27,05,27,11.50
2015,06,27,05,28,11.50
2015,06,27,05,29,11.50
2015,06,27,05,30,11.50
2015,06,27,05,31,11.50
2015,06,27,05,32,11.50
2015,06,27,05,33,11.50
2015,06,27,05,34,11.40
2015,06,27,05,35,11.40
2015,06,27,05,36,11.50
2015,06,27,05,37,11.40
2015,06,27,05,38,11.40
2015,06,27,05,39,11.40
2015,06,27,05,40,11.40
2015,06,27,05,41,11.40
2015,06,27,05,42,11.40
2015,06,27,05,43,11.40
2015,06,27,05,44,11.40
2015,06,27,05,45,11.40
2015,06,27,05,46,11.40
2015,06,27,05,47,11.40
2015,06,27,05,48,11.40
2015,06,27,05,49,11.30
2015,06,27,05,50,11.40
2015,06,27,05,51,11.40
2015,06,27,05,52,11.40
2015,06,27,05,53,11.40
2015,06,27,05,54,11.40
2015,06,27,05,55,11.40
2015,06,27,05,56,11.40
2015,06,27,05,57,11.40
2015,06,27,05,58,11.40
2015,06,27,05,59,11.40
2015,06,27,06,00,11.50
2015,06,27,06,01,11.50
2015,06,27,06,02,11.60
2015,06,27,06,03,11.60
2015,06,27,06,04,11.60
2015,06,27,06,05,11.60
2015,06,27,06,06,11.70
2015,06,27,06,07,11.70
2015,06,27,06,08,11.70
2015,06,27,06,09,11.70
2015,06,27,06,10,11.70
2015,06,27,06,11,11.80
2015,06,27,06,12,11.80
2015,06,27,06,13,11.80
2015,06,27,06,14,11.80
2015,06,27,06,15,11.80
2015,06,27,06,16,11.90
2015,06,27,06,17,11.90
2015,06,27,06,18,12.00
2015,06,27,06,19,12.00
2015,06,27,06,20,12.00
2015,06,27,06,21,12.00
2015,06,27,06,22,12.00
2015,06,27,06,23,12.00
2015,06,27,06,24,12.10
2015,06,27,06,25,12.10
2015,06,27,06,26,12.10
2015,06,27,06,27,12.10
2015,06,27,06,28,12.10
2015,06,27,06,29,12.10
2015,06,27,06,30,12.10
2015,06,27,06,31,12.10
2015,06,27,06,32,12.10
2015,06,27,06,33,12.10
2015,06,27,06,34,12.00
2015,06,27,06,35,12.00
2015,06,27,06,36,12.00
2015,06,27,06,37,12.00
2015,06,27,06,38,12.00
2015,06,27,06,39,12.10
2015,06,27,06,40,12.10
2015,06,27,06,41,12.10
2015,06,27,06,42,12.10
2015,06,27,06,43,12.10
2015,06,27,06,44,12.10
2015,06,27,06,45,12.10
2015,06,27,06,46,12.10
2015,06,27,06,47,12.10
2015,06,27,06,48,12.10
2015,06,27,06,49,12.10
2015,06,27,06,50,12.10
2015,06,27,06,51,12.10
2015,06,27,06,52,12.10
2015,06,27,06,53,12.10
2015,06,27,06,54,12.10
2015,06,27,06,55,12.10
2015,06,27,06,56,12.10
2015,06,27,06,57,12.10
2015,06,27,06,58,12.10
2015,06,27,06,59,12.10
2015,06,27,07,00,12.10
2015,06,27,07,01,12.10
2015,06,27,07,02,12.10
2015,06,27,07,03,12.10
2015,06,27,07,04,12.10
2015,06,27,07,05,12.10
2015,06,27,07,06,12.10
2015,06,27,07,07,12.10
2015,06,27,07,08,12.10
2015,06,27,07,09,12.20
2015,06,27,07,10,12.10
2015,06,27,07,11,12.20
2015,06,27,07,12,12.20
2015,06,27,07,13,12.20
2015,06,27,07,14,12.20
2015,06,27,07,15,12.20
2015,06,27,07,16,12.20
2015,06,27,07,17,12.20
2015,06,27,07,18,12.20
2015,06,27,07,19,12.20
2015,06,27,07,20,12.30
2015,06,27,07,21,12.30
2015,06,27,07,22,12.30
2015,06,27,07,23,12.30
2015,06,27,07,24,12.30
2015,06,27,07,25,12.30
2015,06,27,07,26,12.30
2015,06,27,07,27,12.30
2015,06,27,07,28,12.30
2015,06,27,07,29,12.40
2015,06,27,07,30,12.40
2015,06,27,07,31,12.40
2015,06,27,07,32,12.50
2015,06,27,07,33,12.50
2015,06,27,07,34,12.60
2015,06,27,07,35,12.60
2015,06,27,07,36,12.70
2015,06,27,07,37,12.70
2015,06,27,07,38,12.80
2015,06,27,07,39,12.80
2015,06,27,07,40,12.90
2015,06,27,07,41,13.00
2015,06,27,07,42,13.00
2015,06,27,07,43,13.10
2015,06,27,07,44,13.20
2015,06,27,07,45,13.40
2015,06,27,07,46,13.40
2015,06,27,07,47,13.50
2015,06,27,07,48,13.60
2015,06,27,07,49,13.70
2015,06,27,07,50,13.70
2015,06,27,07,51,13.80
2015,06,27,07,52,13.90
2015,06,27,07,53,13.90
2015,06,27,07,54,14.00
2015,06,27,07,55,14.10
2015,06,27,07,56,14.10
2015,06,27,07,57,14.20
2015,06,27,07,58,14.20
2015,06,27,07,59,14.30
2015,06,27,08,00,14.30
2015,06,27,08,01,14.30
2015,06,27,08,02,14.40
2015,06,27,08,03,14.40
2015,06,27,08,04,14.50
2015,06,27,08,05,14.60
2015,06,27,08,06,14.60
2015,06,27,08,07,14.70
2015,06,27,08,08,14.80
2015,06,27,08,09,14.80
2015,06,27,08,10,14.90
2015,06,27,08,11,14.90
2015,06,27,08,12,15.00
2015,06,27,08,13,15.00
2015,06,27,08,14,15.10
2015,06,27,08,15,15.10
2015,06,27,08,16,15.20
2015,06,27,08,17,15.20
2015,06,27,08,18,15.30
2015,06,27,08,19,15.30
2015,06,27,08,20,15.30
2015,06,27,08,21,15.30
2015,06,27,08,22,15.30
2015,06,27,08,23,15.40
2015,06,27,08,24,15.40
2015,06,27,08,25,15.50
2015,06,27,08,26,15.50
2015,06,27,08,27,15.60
2015,06,27,08,28,15.60
2015,06,27,08,29,15.60
2015,06,27,08,30,15.50
2015,06,27,08,31,15.50
2015,06,27,08,32,15.40
2015,06,27,08,33,15.30
2015,06,27,08,34,15.30
2015,06,27,08,35,15.30
2015,06,27,08,36,15.30
2015,06,27,08,37,15.30
2015,06,27,08,38,15.30
2015,06,27,08,39,15.20
2015,06,27,08,40,15.20
2015,06,27,08,41,15.20
2015,06,27,08,42,15.20
2015,06,27,08,43,15.10
2015,06,27,08,44,15.10
2015,06,27,08,45,15.10
2015,06,27,08,46,15.10
2015,06,27,08,47,15.00
2015,06,27,08,48,15.10
2015,06,27,08,49,15.10
2015,06,27,08,50,15.10
2015,06,27,08,51,15.10
2015,06,27,08,52,15.20
2015,06,27,08,53,15.20
2015,06,27,08,54,15.30
2015,06,27,08,55,15.30
2015,06,27,08,56,15.30
2015,06,27,08,57,15.30
2015,06,27,08,58,15.30
2015,06,27,08,59,15.30
2015,06,27,09,00,15.30
2015,06,27,09,01,15.30
2015,06,27,09,02,15.30
2015,06,27,09,03,15.30
2015,06,27,09,04,15.30
2015,06,27,09,05,15.40
2015,06,27,09,06,15.40
2015,06,27,09,07,15.40
2015,06,27,09,08,15.50
2015,06,27,09,09,15.60
2015,06,27,09,10,15.70
2015,06,27,09,11,15.70
2015,06,27,09,12,15.80
2015,06,27,09,13,15.80
2015,06,27,09,14,15.80
2015,06,27,09,15,15.90
2015,06,27,09,16,15.90
2015,06,27,09,17,16.00
2015,06,27,09,18,16.00
2015,06,27,09,19,16.00
2015,06,27,09,20,16.10
2015,06,27,09,21,16.10
2015,06,27,09,22,16.10
2015,06,27,09,23,16.10
2015,06,27,09,24,16.20
2015,06,27,09,25,16.20
2015,06,27,09,26,16.20
2015,06,27,09,27,16.20
2015,06,27,09,28,16.10
2015,06,27,09,29,16.00
2015,06,27,09,30,16.00
2015,06,27,09,31,16.00
2015,06,27,09,32,15.90
2015,06,27,09,33,15.90
2015,06,27,09,34,15.90
2015,06,27,09,35,15.90
2015,06,27,09,36,15.90
2015,06,27,09,37,15.80
2015,06,27,09,38,15.80
2015,06,27,09,39,15.80
2015,06,27,09,40,15.80
2015,06,27,09,41,15.80
2015,06,27,09,42,15.80
2015,06,27,09,43,15.80
2015,06,27,09,44,15.70
2015,06,27,09,45,15.70
2015,06,27,09,46,15.70
2015,06,27,09,47,15.70
2015,06,27,09,48,15.70
2015,06,27,09,49,15.70
2015,06,27,09,50,15.80
2015,06,27,09,51,15.80
2015,06,27,09,52,15.90
2015,06,27,09,53,16.00
2015,06,27,09,54,16.00
2015,06,27,09,55,16.10
2015,06,27,09,56,16.20
2015,06,27,09,57,16.20
2015,06,27,09,58,16.30
2015,06,27,09,59,16.40
2015,06,27,10,00,16.50
2015,06,27,10,01,16.60
2015,06,27,10,02,16.60
2015,06,27,10,03,16.60
2015,06,27,10,04,16.60
2015,06,27,10,05,16.60
2015,06,27,10,06,16.50
2015,06,27,10,07,16.50
2015,06,27,10,08,16.50
2015,06,27,10,09,16.50
2015,06,27,10,10,16.40
2015,06,27,10,11,16.40
2015,06,27,10,12,16.40
2015,06,27,10,13,16.40
2015,06,27,10,14,16.40
2015,06,27,10,15,16.40
2015,06,27,10,16,16.40
2015,06,27,10,17,16.40
2015,06,27,10,18,16.40
2015,06,27,10,19,16.50
2015,06,27,10,20,16.50
2015,06,27,10,21,16.60
2015,06,27,10,22,16.60
2015,06,27,10,23,16.60
2015,06,27,10,24,16.70
2015,06,27,10,25,16.70
2015,06,27,10,26,16.70
2015,06,27,10,27,16.70
2015,06,27,10,28,16.80
2015,06,27,10,29,16.80
2015,06,27,10,30,16.80
2015,06,27,10,31,16.90
2015,06,27,10,32,16.90
2015,06,27,10,33,16.90
2015,06,27,10,34,17.00
2015,06,27,10,35,17.00
2015,06,27,10,36,17.10
2015,06,27,10,37,17.20
2015,06,27,10,38,17.20
2015,06,27,10,39,17.20
2015,06,27,10,40,17.20
2015,06,27,10,41,17.10
2015,06,27,10,42,17.00
2015,06,27,10,43,17.00
2015,06,27,10,44,16.90
2015,06,27,10,45,16.90
2015,06,27,10,46,16.90
2015,06,27,10,47,16.90
2015,06,27,10,48,16.90
2015,06,27,10,49,16.90
2015,06,27,10,50,16.90
2015,06,27,10,51,16.90
2015,06,27,10,52,16.90
2015,06,27,10,53,17.00
2015,06,27,10,54,17.00
2015,06,27,10,55,17.10
2015,06,27,10,56,17.30
2015,06,27,10,57,17.40
2015,06,27,10,58,17.50
2015,06,27,10,59,17.60
2015,06,27,11,00,17.70
2015,06,27,11,01,17.70
2015,06,27,11,02,17.70
2015,06,27,11,03,17.80
2015,06,27,11,04,17.70
2015,06,27,11,05,17.60
2015,06,27,11,06,17.50
2015,06,27,11,07,17.40
2015,06,27,11,08,17.30
2015,06,27,11,09,17.20
2015,06,27,11,10,17.20
2015,06,27,11,11,17.10
2015,06,27,11,12,17.10
2015,06,27,11,13,17.00
2015,06,27,11,14,16.90
2015,06,27,11,15,16.90
2015,06,27,11,16,16.90
2015,06,27,11,17,16.90
2015,06,27,11,18,16.90
2015,06,27,11,19,16.90
2015,06,27,11,20,16.90
2015,06,27,11,21,17.00
2015,06,27,11,22,17.00
2015,06,27,11,23,17.10
2015,06,27,11,24,17.10
2015,06,27,11,25,17.10
2015,06,27,11,26,17.20
2015,06,27,11,27,17.30
2015,06,27,11,28,17.30
2015,06,27,11,29,17.30
2015,06,27,11,30,17.30
2015,06,27,11,31,17.30
2015,06,27,11,32,17.20
2015,06,27,11,33,17.00
2015,06,27,11,34,16.80
2015,06,27,11,35,16.70
2015,06,27,11,36,16.60
2015,06,27,11,37,16.50
2015,06,27,11,38,16.40
2015,06,27,11,39,16.30
2015,06,27,11,40,16.30
2015,06,27,11,41,16.40
2015,06,27,11,42,16.50
2015,06,27,11,43,16.50
2015,06,27,11,44,16.70
2015,06,27,11,45,16.80
2015,06,27,11,46,16.90
2015,06,27,11,47,17.00
2015,06,27,11,48,17.00
2015,06,27,11,49,17.10
2015,06,27,11,50,17.10
2015,06,27,11,51,17.00
2015,06,27,11,52,17.00
2015,06,27,11,53,16.80
2015,06,27,11,54,16.80
2015,06,27,11,55,16.70
2015,06,27,11,56,16.60
2015,06,27,11,57,16.60
2015,06,27,11,58,16.60
2015,06,27,11,59,16.50
2015,06,27,12,00,16.50
2015,06,27,12,01,16.60
2015,06,27,12,02,16.60
2015,06,27,12,03,16.70
2015,06,27,12,04,16.70
2015,06,27,12,05,16.80
2015,06,27,12,06,16.70
2015,06,27,12,07,16.70
2015,06,27,12,08,16.60
2015,06,27,12,09,16.60
2015,06,27,12,10,16.60
2015,06,27,12,11,16.60
2015,06,27,12,12,16.60
2015,06,27,12,13,16.70
2015,06,27,12,14,16.70
2015,06,27,12,15,16.70
2015,06,27,12,16,16.70
2015,06,27,12,17,16.70
2015,06,27,12,18,16.80
2015,06,27,12,19,16.80
2015,06,27,12,20,16.90
2015,06,27,12,21,16.90
2015,06,27,12,22,16.90
2015,06,27,12,23,17.00
2015,06,27,12,24,17.00
2015,06,27,12,25,17.10
2015,06,27,12,26,17.20
2015,06,27,12,27,17.20
2015,06,27,12,28,17.20
2015,06,27,12,29,17.30
2015,06,27,12,30,17.40
2015,06,27,12,31,17.40
2015,06,27,12,32,17.50
2015,06,27,12,33,17.50
2015,06,27,12,34,17.60
2015,06,27,12,35,17.70
2015,06,27,12,36,17.80
2015,06,27,12,37,17.80
2015,06,27,12,38,17.90
2015,06,27,12,39,18.00
2015,06,27,12,40,18.10
2015,06,27,12,41,18.00
2015,06,27,12,42,18.00
2015,06,27,12,43,17.90
2015,06,27,12,44,17.90
2015,06,27,12,45,17.80
2015,06,27,12,46,17.80
2015,06,27,12,47,17.70
2015,06,27,12,48,17.70
2015,06,27,12,49,17.70
2015,06,27,12,50,17.70
2015,06,27,12,51,17.70
2015,06,27,12,52,17.60
2015,06,27,12,53,17.60
2015,06,27,12,54,17.50
2015,06,27,12,55,17.50
2015,06,27,12,56,17.60
2015,06,27,12,57,17.60
2015,06,27,12,58,17.50
2015,06,27,12,59,17.40
2015,06,27,13,00,17.40
2015,06,27,13,01,17.40
2015,06,27,13,02,17.50
2015,06,27,13,03,17.60
2015,06,27,13,04,17.50
2015,06,27,13,05,17.50
2015,06,27,13,06,17.40
2015,06,27,13,07,17.40
2015,06,27,13,08,17.40
2015,06,27,13,09,17.40
2015,06,27,13,10,17.40
2015,06,27,13,11,17.40
2015,06,27,13,12,17.30
2015,06,27,13,13,17.30
2015,06,27,13,14,17.30
2015,06,27,13,15,17.30
2015,06,27,13,16,17.40
2015,06,27,13,17,17.40
2015,06,27,13,18,17.50
2015,06,27,13,19,17.50
2015,06,27,13,20,17.50
2015,06,27,13,21,17.50
2015,06,27,13,22,17.50
2015,06,27,13,23,17.50
2015,06,27,13,24,17.60
2015,06,27,13,25,17.60
2015,06,27,13,26,17.60
2015,06,27,13,27,17.60
2015,06,27,13,28,17.70
2015,06,27,13,29,17.70
2015,06,27,13,30,17.80
2015,06,27,13,31,17.80
2015,06,27,13,32,17.90
2015,06,27,13,33,17.90
2015,06,27,13,34,17.90
2015,06,27,13,35,17.90
2015,06,27,13,36,17.90
2015,06,27,13,37,18.00
2015,06,27,13,38,18.10
2015,06,27,13,39,18.20
2015,06,27,13,40,18.40
2015,06,27,13,41,18.60
2015,06,27,13,42,18.80
2015,06,27,13,43,18.90
2015,06,27,13,44,19.00
2015,06,27,13,45,19.10
2015,06,27,13,46,19.20
2015,06,27,13,47,19.20
2015,06,27,13,48,19.20
2015,06,27,13,49,19.30
2015,06,27,13,50,19.30
2015,06,27,13,51,19.30
2015,06,27,13,52,19.30
2015,06,27,13,53,19.20
2015,06,27,13,54,19.20
2015,06,27,13,55,19.00
2015,06,27,13,56,18.90
2015,06,27,13,57,18.80
2015,06,27,13,58,18.70
2015,06,27,13,59,18.70
2015,06,27,14,00,18.70
2015,06,27,14,01,18.70
2015,06,27,14,02,18.80
2015,06,27,14,03,18.80
2015,06,27,14,04,18.90
2015,06,27,14,05,19.00
2015,06,27,14,06,19.00
2015,06,27,14,07,19.00
2015,06,27,14,08,18.90
2015,06,27,14,09,18.80
2015,06,27,14,10,18.70
2015,06,27,14,11,18.70
2015,06,27,14,12,18.60
2015,06,27,14,13,18.60
2015,06,27,14,14,18.60
2015,06,27,14,15,18.60
2015,06,27,14,16,18.60
2015,06,27,14,17,18.60
2015,06,27,14,18,18.60
2015,06,27,14,19,18.60
2015,06,27,14,20,18.60
2015,06,27,14,21,18.70
2015,06,27,14,22,18.80
2015,06,27,14,23,18.80
2015,06,27,14,24,18.90
2015,06,27,14,25,18.90
2015,06,27,14,26,18.90
2015,06,27,14,27,18.80
2015,06,27,14,28,18.90
2015,06,27,14,29,18.90
2015,06,27,14,30,19.00
2015,06,27,14,31,19.10
2015,06,27,14,32,19.20
2015,06,27,14,33,19.30
2015,06,27,14,34,19.40
2015,06,27,14,35,19.50
2015,06,27,14,36,19.60
2015,06,27,14,37,19.70
2015,06,27,14,38,19.70
2015,06,27,14,39,19.80
2015,06,27,14,40,19.80
2015,06,27,14,41,19.90
2015,06,27,14,42,19.80
2015,06,27,14,43,19.80
2015,06,27,14,44,19.80
2015,06,27,14,45,19.80
2015,06,27,14,46,19.90
2015,06,27,14,47,20.00
2015,06,27,14,48,20.00
2015,06,27,14,49,20.00
2015,06,27,14,50,20.00
2015,06,27,14,51,20.00
2015,06,27,14,52,19.90
2015,06,27,14,53,19.90
2015,06,27,14,54,19.90
2015,06,27,14,55,19.90
2015,06,27,14,56,20.00
2015,06,27,14,57,20.10
2015,06,27,14,58,20.10
2015,06,27,14,59,20.10
2015,06,27,15,00,20.00
2015,06,27,15,01,19.90
2015,06,27,15,02,19.90
2015,06,27,15,03,19.90
2015,06,27,15,04,19.90
2015,06,27,15,05,19.90
2015,06,27,15,06,19.90
2015,06,27,15,07,19.80
2015,06,27,15,08,19.80
2015,06,27,15,09,19.80
2015,06,27,15,10,19.80
2015,06,27,15,11,19.70
2015,06,27,15,12,19.70
2015,06,27,15,13,19.70
2015,06,27,15,14,19.60
2015,06,27,15,15,19.60
2015,06,27,15,16,19.50
2015,06,27,15,17,19.40
2015,06,27,15,18,19.40
2015,06,27,15,19,19.30
2015,06,27,15,20,19.30
2015,06,27,15,21,19.30
2015,06,27,15,22,19.20
2015,06,27,15,23,19.20
2015,06,27,15,24,19.10
2015,06,27,15,25,19.10
2015,06,27,15,26,19.00
2015,06,27,15,27,18.90
2015,06,27,15,28,18.90
2015,06,27,15,29,18.90
2015,06,27,15,30,18.90
2015,06,27,15,31,18.90
2015,06,27,15,32,18.80
2015,06,27,15,33,18.80
2015,06,27,15,34,18.80
2015,06,27,15,35,18.80
2015,06,27,15,36,18.80
2015,06,27,15,37,18.80
2015,06,27,15,38,18.80
2015,06,27,15,39,18.80
2015,06,27,15,40,18.70
2015,06,27,15,41,18.70
2015,06,27,15,42,18.70
2015,06,27,15,43,18.80
2015,06,27,15,44,18.80
2015,06,27,15,45,18.80
2015,06,27,15,46,18.90
2015,06,27,15,47,18.90
2015,06,27,15,48,19.00
2015,06,27,15,49,19.10
2015,06,27,15,50,19.20
2015,06,27,15,51,19.30
2015,06,27,15,52,19.40
2015,06,27,15,53,19.40
2015,06,27,15,54,19.40
2015,06,27,15,55,19.40
2015,06,27,15,56,19.40
2015,06,27,15,57,19.40
2015,06,27,15,58,19.40
2015,06,27,15,59,19.40
2015,06,27,16,00,19.40
2015,06,27,16,01,19.40
2015,06,27,16,02,19.30
2015,06,27,16,03,19.30
2015,06,27,16,04,19.30
2015,06,27,16,05,19.20
2015,06,27,16,06,19.20
2015,06,27,16,07,19.10
2015,06,27,16,08,19.10
2015,06,27,16,09,19.10
2015,06,27,16,10,19.10
2015,06,27,16,11,19.10
2015,06,27,16,12,19.10
2015,06,27,16,13,19.20
2015,06,27,16,14,19.20
2015,06,27,16,15,19.30
2015,06,27,16,16,19.40
2015,06,27,16,17,19.50
2015,06,27,16,18,19.60
2015,06,27,16,19,19.70
2015,06,27,16,20,19.80
2015,06,27,16,21,19.80
2015,06,27,16,22,19.80
2015,06,27,16,23,19.70
2015,06,27,16,24,19.70
2015,06,27,16,25,19.60
2015,06,27,16,26,19.60
2015,06,27,16,27,19.50
2015,06,27,16,28,19.50
2015,06,27,16,29,19.50
2015,06,27,16,30,19.60
2015,06,27,16,31,19.70
2015,06,27,16,32,19.90
2015,06,27,16,33,20.00
2015,06,27,16,34,20.10
2015,06,27,16,35,20.20
2015,06,27,16,36,20.20
2015,06,27,16,37,20.30
2015,06,27,16,38,20.30
2015,06,27,16,39,20.30
2015,06,27,16,40,20.40
2015,06,27,16,41,20.40
2015,06,27,16,42,20.40
2015,06,27,16,43,20.50
2015,06,27,16,44,20.60
2015,06,27,16,45,20.60
2015,06,27,16,46,20.60
2015,06,27,16,47,20.50
2015,06,27,16,48,20.40
2015,06,27,16,49,20.20
2015,06,27,16,50,20.10
2015,06,27,16,51,19.90
2015,06,27,16,52,19.90
2015,06,27,16,53,19.80
2015,06,27,16,54,19.80
2015,06,27,16,55,19.80
2015,06,27,16,56,19.90
2015,06,27,16,57,20.00
2015,06,27,16,58,20.10
2015,06,27,16,59,20.10
2015,06,27,17,00,20.20
2015,06,27,17,01,20.30
2015,06,27,17,02,20.30
2015,06,27,17,03,20.40
2015,06,27,17,04,20.40
2015,06,27,17,05,20.50
2015,06,27,17,06,20.50
2015,06,27,17,07,20.60
2015,06,27,17,08,20.60
2015,06,27,17,09,20.70
2015,06,27,17,10,20.70
2015,06,27,17,11,20.70
2015,06,27,17,12,20.70
2015,06,27,17,13,20.80
2015,06,27,17,14,20.80
2015,06,27,17,15,20.90
2015,06,27,17,16,21.00
2015,06,27,17,17,21.00
2015,06,27,17,18,21.00
2015,06,27,17,19,21.10
2015,06,27,17,20,21.10
2015,06,27,17,21,21.20
2015,06,27,17,22,21.20
2015,06,27,17,23,21.30
2015,06,27,17,24,21.30
2015,06,27,17,25,21.40
2015,06,27,17,26,21.40
2015,06,27,17,27,21.50
2015,06,27,17,28,21.60
2015,06,27,17,29,21.60
2015,06,27,17,30,21.70
2015,06,27,17,31,21.80
2015,06,27,17,32,21.80
2015,06,27,17,33,21.80
2015,06,27,17,34,21.90
2015,06,27,17,35,21.90
2015,06,27,17,36,22.00
2015,06,27,17,37,22.00
2015,06,27,17,38,22.10
2015,06,27,17,39,22.10
2015,06,27,17,40,22.10
2015,06,27,17,41,22.10
2015,06,27,17,42,22.10
2015,06,27,17,43,22.10
2015,06,27,17,44,22.10
2015,06,27,17,45,22.20
2015,06,27,17,46,22.30
2015,06,27,17,47,22.30
2015,06,27,17,48,22.40
2015,06,27,17,49,22.40
2015,06,27,17,50,22.50
2015,06,27,17,51,22.60
2015,06,27,17,52,22.60
2015,06,27,17,53,22.60
2015,06,27,17,54,22.60
2015,06,27,17,55,22.60
2015,06,27,17,56,22.60
2015,06,27,17,57,22.60
2015,06,27,17,58,22.60
2015,06,27,17,59,22.60
2015,06,27,18,00,22.70
2015,06,27,18,01,22.70
2015,06,27,18,02,22.80
2015,06,27,18,03,22.80
2015,06,27,18,04,22.80
2015,06,27,18,05,22.80
2015,06,27,18,06,22.80
2015,06,27,18,07,22.80
2015,06,27,18,08,22.80
2015,06,27,18,09,22.70
2015,06,27,18,10,22.70
2015,06,27,18,11,22.70
2015,06,27,18,12,22.70
2015,06,27,18,13,22.60